Weather History for KPGA - March, 2015

Change the Weather History Date:

Saturday, March 21, 2015

  Actual Average Record
Temperature  
Mean Temperature 60 °F -  
Max Temperature 75 °F 61 °F 79 °F (2004)
Min Temperature 45 °F 37 °F 29 °F (1968)
Degree Days  
Heating Degree Days 5    
Growing Degree Days 10 (Base 50)    
Moisture  
Dew Point 20 °F    
Average Humidity 21    
Maximum Humidity 42    
Minimum Humidity 6    
Precipitation  
Precipitation 0.00 in - - ()
Sea Level Pressure  
Sea Level Pressure 30.01 in    
Wind  
Wind Speed 4 mph (West)    
Max Wind Speed 7 mph    
Max Gust Speed -    
Visibility 10 miles    
Events      
Averages and records for this station are not official NWS values.
T = Trace of Precipitation, MM = Missing Value Source: NWS Daily Summary

Daily Weather History Graph

Daily Weather History Graph

Search for Another Location

Airport or City:

Trip Planner

Search our weather history database for the weather conditions in past years. The results will help you decide how hot, cold, wet, or windy it might be!

Date:

Astronomy

Mar. 21, 2015 Rise Set
Actual Time 6:28 AM MST 6:38 PM MST
Civil Twilight 6:02 AM MST 7:04 PM MST
Nautical Twilight 5:32 AM MST 7:34 PM MST
Astronomical Twilight 5:01 AM MST 8:05 PM MST
Moon 7:17 AM MST (3/21) 8:30 PM MST (3/21)
Length of Visible Light 13h 02m
Length of Day
12h 10m
Waxing Crescent, 3% of the Moon is Illuminated
Mar 21
Waxing Crescent
Mar 27
First Quarter
Apr 4
Full
Apr 11
Last Quarter
Apr 18
New

Hourly Weather History & Observations

Time (MST) Temp. Windchill Dew Point Humidity Pressure Visibility Wind Dir Wind Speed Gust Speed Precip Events Conditions
12:53 AM 52.0 °F - 17.1 °F 25% 30.05 in 10.0 mi SW 3.5 mph - N/A   Clear
1:53 AM 50.0 °F - 17.1 °F 27% 30.05 in 10.0 mi Calm Calm - N/A   Clear
2:53 AM 48.2 °F - 17.6 °F 30% 30.14 in 10.0 mi SSW 3.5 mph - N/A   Clear
3:53 AM 50.0 °F - 17.1 °F 27% 30.02 in 10.0 mi WNW 3.5 mph - N/A   Clear
4:53 AM 46.0 °F 44.8 °F 19.9 °F 35% 30.04 in 10.0 mi South 3.5 mph - N/A   Clear
5:53 AM 46.9 °F - 19.9 °F 34% 30.06 in 10.0 mi WSW 5.8 mph - N/A   Clear
6:53 AM 45.0 °F 42.6 °F 23.0 °F 42% 30.09 in 10.0 mi SW 4.6 mph - N/A   Clear
7:53 AM 50.0 °F - 21.0 °F 32% 30.09 in 10.0 mi West 4.6 mph - N/A   Clear
8:53 AM 52.0 °F - 21.0 °F 30% 30.11 in 10.0 mi WNW 5.8 mph - N/A   Clear
9:53 AM 57.0 °F - 19.9 °F 24% 30.10 in 10.0 mi North 4.6 mph - N/A   Clear
10:53 AM 60.1 °F - 24.1 °F 25% 30.09 in 10.0 mi WNW 5.8 mph - N/A   Clear
11:53 AM 64.0 °F - 26.1 °F 24% 30.05 in 10.0 mi Variable 4.6 mph - N/A   Clear
12:53 PM 68.0 °F - 26.1 °F 21% 30.01 in 10.0 mi NE 4.6 mph - N/A   Clear
1:53 PM 70.0 °F - 27.0 °F 20% 29.98 in 10.0 mi East 5.8 mph - N/A   Clear
2:53 PM 71.1 °F - 25.0 °F 18% 29.95 in 10.0 mi NNE 4.6 mph - N/A   Clear
3:53 PM 73.9 °F - 21.0 °F 14% 29.92 in 10.0 mi Variable 5.8 mph - N/A   Clear
4:53 PM 73.9 °F - 19.9 °F 13% 29.91 in 10.0 mi ENE 4.6 mph - N/A   Clear
5:53 PM 73.0 °F - 19.0 °F 13% 29.91 in 10.0 mi NNE 3.5 mph - N/A   Clear
6:53 PM 66.9 °F - 19.9 °F 17% 29.93 in 10.0 mi Calm Calm - N/A   Clear
7:53 PM 66.0 °F - 21.0 °F 18% 29.94 in 10.0 mi SSW 5.8 mph - N/A   Clear
8:53 PM 66.9 °F - 12.9 °F 12% 29.96 in 10.0 mi West 5.8 mph - N/A   Clear
9:53 PM 66.0 °F - 12.0 °F 12% 29.96 in 10.0 mi WSW 5.8 mph - N/A   Clear
10:53 PM 62.1 °F - 15.1 °F 16% 29.97 in 10.0 mi SSW 6.9 mph - N/A   Clear
11:53 PM 59.0 °F - 16.0 °F 19% 29.97 in 10.0 mi West 3.5 mph - N/A   Clear